Temperature
-0 0 0 0 0 -0 0 0 1 1 1 2 2 1 1 2 2 2 2 2 2 2 2 2 2 2 2 2 2 2 2 2 2 2 2 2 2 2 2 2 2 2 1 1
-1 -0 -0 -0 -0 0 0 0 0 1 1 1 1 1 1 1 1 1 1 2 2 1 1 1 1 1 1 1 1 1 1 1 1 1 1 2 2 2 2 1 1 1 1 1
-0 -1 -0 -0 -0 -0 -1 -1 -0 1 1 1 0 -0 0 1 1 1 1 1 1 1 1 1 0 0 0 1 1 1 1 1 1 1 1 1 1 1 1 1 1 1 0 0
-2 -1 0 1 -0 -1 -1 -1 -1 -0 -0 -0 -0 0 1 1 1 1 1 1 1 1 1 0 0 -0 -0 0 0 0 0 1 1 1 1 1 1 1 1 0 0 0 -0 -0
-2 -1 -1 0 -1 -1 -1 -1 -1 -1 -1 -1 -1 -0 0 1 1 1 1 0 0 0 0 -0 -0 -0 -0 -0 -0 -0 0 0 0 0 0 0 0 0 0 0 -0 -0 -1 -1
-2 -1 -0 1 -1 -1 -1 -1 -1 -1 -1 -2 -2 -1 -1 1 1 0 0 0 -0 -0 -0 -0 -0 -0 -0 -0 -0 -0 -0 -0 -0 -0 -0 -0 -0 -0 -0 -0 -0 -1 -1 -1
-3 -2 -1 -1 -2 -1 0 0 -0 -1 -1 -2 -2 -1 0 0 -0 -0 -0 -0 -0 -1 -1 -1 -1 -1 -1 -1 -1 -1 -1 -1 -1 -1 -1 -1 -1 -1 -1 -1 -1 -1 -1 -1
-3 -2 -0 -2 -2 -1 -1 -0 -1 -1 -1 -1 -1 -0 -0 -1 -1 -1 -1 -1 -1 -1 -1 -1 -1 -1 -1 -1 -1 -1 -1 -1 -1 -1 -1 -1 -1 -1 -1 -1 -1 -1 -2 -2
-3 -1 -2 -2 -1 -1 -1 -1 -1 -1 -1 -1 -1 -1 -1 -1 -1 -2 -2 -1 -2 -2 -1 -1 -1 -2 -2 -2 -2 -2 -2 -2 -2 -2 -2 -2 -2 -2 -2 -2 -2 -2 -2 -2
-4 -4 -3 -2 -1 -1 -1 -1 -1 -1 -1 -1 -1 -1 -2 -2 -2 -2 -2 -2 -2 -2 -2 -2 -2 -2 -2 -2 -2 -2 -2 -2 -2 -2 -2 -2 -2 -2 -2 -2 -2 -3 -3 -3
-5 -4 -3 -2 -1 -1 -1 -1 -1 -1 -1 -2 -2 -2 -2 -2 -2 -2 -2 -3 -3 -2 -2 -2 -2 -3 -3 -3 -3 -3 -3 -3 -3 -3 -3 -3 -3 -3 -3 -3 -3 -3 -3 -3
-3 -3 -3 -2 -1 -1 -1 -2 -2 -2 -2 -2 -2 -3 -3 -3 -3 -3 -3 -3 -3 -3 -3 -3 -3 -3 -3 -3 -3 -4 -4 -4 -4 -4 -4 -4 -3 -3 -3 -3 -3 -3 -3 -3
-2 -2 -2 -2 -2 -2 -2 -2 -2 -2 -2 -3 -3 -3 -3 -3 -3 -3 -3 -3 -3 -3 -3 -4 -4 -4 -4 -4 -4 -4 -4 -4 -4 -4 -4 -4 -4 -4 -4 -4 -4 -4 -4 -4
-2 -2 -3 -3 -3 -2 -2 -3 -3 -3 -3 -3 -3 -3 -3 -3 -4 -4 -4 -4 -4 -4 -4 -4 -4 -4 -4 -4 -4 -4 -4 -4 -4 -4 -4 -5 -5 -5 -5 -5 -4 -4 -4 -4
-3 -3 -3 -3 -3 -3 -3 -3 -4 -4 -4 -4 -4 -4 -4 -4 -4 -4 -4 -4 -4 -4 -4 -4 -4 -4 -5 -5 -5 -5 -5 -5 -5 -5 -5 -5 -5 -5 -5 -5 -5 -5 -5 -5
-3 -3 -3 -3 -4 -4 -4 -4 -4 -4 -4 -4 -4 -5 -5 -5 -5 -5 -5 -5 -5 -5 -5 -5 -5 -5 -5 -5 -5 -5 -5 -5 -5 -5 -5 -5 -5 -5 -5 -5 -5 -5 -5 -5
-4 -4 -4 -4 -4 -4 -4 -5 -5 -5 -5 -5 -5 -5 -5 -5 -5 -5 -5 -5 -5 -5 -5 -5 -5 -5 -5 -5 -5 -6 -5 -5 -5 -5 -6 -6 -6 -6 -6 -5 -5 -5 -6 -6
-4 -4 -4 -4 -5 -5 -5 -5 -5 -5 -5 -5 -5 -5 -5 -6 -6 -6 -6 -6 -6 -6 -6 -6 -6 -6 -6 -6 -6 -6 -6 -6 -6 -6 -6 -6 -6 -6 -6 -6 -6 -6 -6 -6
-4 -4 -5 -5 -5 -5 -5 -5 -5 -5 -5 -6 -6 -6 -6 -6 -6 -6 -6 -6 -6 -6 -6 -6 -6 -6 -6 -6 -6 -6 -6 -6 -6 -6 -6 -6 -6 -6 -6 -6 -6 -6 -6 -6
-4 -5 -5 -5 -5 -5 -6 -6 -6 -6 -6 -6 -6 -6 -6 -6 -6 -6 -6 -6 -6 -6 -6 -6 -6 -6 -6 -6 -6 -6 -6 -6 -6 -7 -7 -6 -6 -6 -7 -7 -7 -7 -7 -6
-5 -5 -5 -5 -5 -6 -6 -6 -6 -6 -6 -6 -6 -6 -6 -6 -7 -7 -7 -6 -7 -7 -7 -7 -7 -7 -7 -7 -7 -7 -7 -7 -7 -7 -7 -7 -7 -7 -7 -7 -7 -7 -7 -7
-5 -5 -5 -6 -6 -6 -6 -6 -6 -6 -6 -6 -7 -7 -7 -7 -7 -7 -7 -7 -7 -7 -7 -7 -7 -7 -7 -7 -7 -7 -7 -7 -7 -7 -7 -7 -7 -7 -7 -7 -7 -7 -7 -7
-5 -5 -6 -6 -6 -6 -6 -6 -6 -6 -7 -7 -7 -7 -7 -7 -7 -7 -7 -7 -7 -7 -7 -7 -7 -7 -7 -7 -7 -7 -7 -7 -7 -7 -7 -7 -7 -7 -7 -7 -7 -7 -7 -7
-5 -6 -6 -6 -6 -6 -6 -6 -7 -7 -7 -7 -7 -7 -7 -7 -7 -7 -7 -7 -7 -7 -7 -7 -7 -8 -8 -8 -8 -8 -8 -7 -7 -7 -7 -7 -7 -7 -7 -7 -7 -7 -7 -7
-6 -6 -6 -6 -6 -6 -7 -7 -7 -7 -7 -7 -7 -7 -7 -8 -7 -7 -7 -7 -8 -8 -8 -8 -8 -8 -8 -8 -8 -8 -8 -8 -8 -8 -8 -7 -7 -7 -7 -7 -7 -7 -7 -7
-6 -6 -6 -6 -7 -7 -7 -7 -7 -7 -7 -7 -7 -7 -8 -8 -8 -8 -8 -8 -8 -8 -8 -8 -8 -8 -8 -8 -8 -8 -8 -8 -8 -8 -8 -8 -8 -7 -7 -7 -7 -7 -7 -7
-6 -6 -6 -7 -7 -7 -7 -7 -7 -7 -7 -7 -7 -8 -8 -8 -8 -8 -8 -8 -8 -8 -8 -8 -8 -8 -8 -8 -8 -8 -8 -8 -8 -8 -8 -8 -8 -8 -8 -8 -7 -7 -7 -7
Wind_Speed
4 3 3 5 7 8 9 9 9 10 10 12 9 6 5 4 3 3 3 3 3 4 5 5 5 5 5 5 4 3 3 3 4 4 3 3 3 3 3 3 4 4 5 5
3 3 4 6 8 11 11 10 11 11 13 11 6 3 3 4 3 4 4 4 4 5 5 6 6 5 5 5 5 3 3 4 4 3 2 3 3 3 3 3 3 3 4 5
4 2 1 7 9 10 7 7 8 13 12 5 4 5 5 5 4 5 4 4 5 5 6 6 6 5 5 5 5 4 4 4 3 3 3 3 3 3 3 3 3 4 4 4
1 1 7 7 3 7 8 8 8 7 6 4 5 5 5 5 4 4 4 5 5 5 6 6 5 5 5 4 4 4 4 4 3 3 3 3 3 3 3 3 4 4 4 4
3 4 7 7 3 5 6 7 6 9 7 4 1 3 4 3 3 4 5 5 5 6 6 6 5 4 3 4 4 3 4 4 3 3 3 3 3 4 3 3 4 4 4 4
3 3 6 6 2 2 3 5 4 6 7 5 1 3 5 3 3 4 4 4 4 4 4 5 5 3 2 3 3 4 4 4 4 3 3 4 4 3 3 3 4 3 4 4
5 5 8 5 2 4 4 6 3 4 5 4 5 6 4 3 4 4 4 4 4 4 4 4 4 2 2 3 4 5 4 3 3 3 3 3 3 3 3 3 3 3 3 3
5 5 8 2 5 6 6 2 2 3 4 4 5 4 3 3 4 4 4 4 4 3 4 4 3 2 3 4 4 4 3 3 3 3 3 3 2 3 2 2 2 2 2 3
8 7 3 4 5 4 2 3 3 3 3 3 3 4 4 4 4 4 4 4 3 3 4 4 3 2 3 4 4 3 3 4 4 3 3 2 2 2 2 2 2 2 2 2
4 6 5 4 4 3 3 4 3 3 3 2 4 4 4 4 4 4 4 4 3 3 3 4 4 3 3 4 3 3 3 4 3 3 3 3 2 2 2 2 2 2 2 2
5 6 4 5 5 5 4 3 2 2 2 3 3 4 4 4 4 4 4 3 2 3 4 5 4 4 4 3 2 3 3 3 3 3 3 3 3 2 2 2 2 3 2 2
7 6 5 5 4 3 3 3 3 3 3 3 3 4 4 4 4 3 3 3 3 3 4 5 4 4 4 3 2 2 3 3 2 2 2 2 2 3 4 3 5 4 4 3
6 4 4 4 4 3 3 3 3 3 3 3 3 3 3 4 4 3 3 3 3 4 4 4 4 4 4 4 2 2 3 3 2 2 2 2 2 2 3 4 5 5 4 4
4 2 2 4 3 3 2 2 1 2 2 2 3 2 2 3 3 3 3 4 4 3 3 3 4 4 4 3 3 3 3 3 3 2 2 2 2 2 2 3 3 4 4 5
3 3 4 2 2 2 1 0 1 2 3 3 2 2 2 3 3 4 4 3 3 3 3 3 4 5 4 3 3 3 3 2 2 2 2 2 2 2 2 2 2 3 3 4
2 2 2 2 2 2 1 1 1 3 3 3 3 3 3 3 4 4 4 3 2 4 4 4 4 5 4 3 3 2 2 3 2 2 1 1 2 2 2 2 2 2 3 3
2 2 2 3 3 3 3 3 3 3 3 4 4 4 3 3 3 4 4 4 3 4 4 4 5 4 4 3 3 2 2 2 3 2 1 2 2 2 2 2 2 2 3 3
4 5 4 4 4 4 4 3 3 3 3 4 4 3 2 3 4 5 4 4 3 4 4 4 4 4 4 3 3 2 2 2 2 2 2 2 2 2 2 2 2 3 3 3
2 2 2 3 3 3 3 3 3 3 3 3 2 3 3 3 4 4 3 3 3 5 5 5 6 4 4 4 4 2 2 2 2 2 2 2 2 2 2 2 2 3 3 3
1 1 1 2 2 2 2 3 2 3 3 2 2 2 3 4 3 3 3 3 4 4 5 5 4 3 4 4 4 2 2 2 2 2 2 2 2 2 2 2 3 3 3 3
1 1 1 1 2 2 2 2 2 3 3 2 2 3 4 4 3 3 3 4 4 4 5 6 4 3 3 3 3 2 2 2 2 2 2 2 2 2 2 2 3 3 3 3
2 1 2 2 2 2 2 2 2 2 2 2 2 2 3 4 4 3 4 4 5 6 4 3 3 5 5 4 2 2 2 2 2 2 2 2 2 3 2 2 3 3 3 3
2 2 2 2 2 2 2 2 2 2 2 3 3 3 3 4 3 3 4 3 3 6 4 3 5 7 6 2 1 2 2 3 3 2 3 3 3 3 3 3 3 3 3 3
1 2 2 1 1 1 2 3 2 2 2 3 3 3 3 3 3 3 4 6 7 7 4 5 7 6 4 2 2 2 2 3 3 3 3 3 3 2 2 3 3 3 3 3
2 1 1 1 2 2 2 2 2 2 2 2 3 3 3 3 3 3 3 4 6 5 4 5 6 5 3 2 2 2 2 3 3 3 2 2 2 2 2 2 2 3 3 3
1 1 2 2 2 2 2 1 1 2 2 2 3 2 2 2 2 2 2 3 4 4 3 3 3 3 2 2 2 2 2 3 3 3 3 2 2 2 2 2 3 3 3 3
1 1 1 1 1 1 1 2 2 2 2 2 3 3 2 2 2 2 2 2 2 2 3 3 2 2 2 2 2 2 2 2 2 2 2 2 2 2 2 3 3 3 3 3
Wind_Direction
246 250 210 225 223 201 206 211 218 245 249 265 270 264 265 267 277 294 308 318 315 314 314 318 321 319 312 304 301 295 280 263 258 256 249 246 243 243 245 245 246 243 243 247
273 253 235 258 247 222 225 228 237 256 265 267 265 264 269 262 259 276 289 294 300 306 310 310 309 308 307 303 300 297 284 277 272 261 256 251 245 246 248 255 258 257 253 248
253 288 340 265 235 212 214 216 211 235 248 260 267 262 252 253 254 259 264 281 291 294 294 295 297 297 296 296 299 292 285 287 281 262 259 259 255 250 250 252 253 255 255 249
194 96 237 248 204 194 213 236 221 236 257 249 246 261 260 245 237 255 268 279 285 288 291 291 291 296 296 302 299 289 289 288 284 273 268 270 261 253 255 261 254 253 254 250
171 219 267 284 235 181 196 255 227 230 255 265 300 339 303 253 231 255 267 273 276 279 282 287 290 292 300 309 303 294 290 288 284 274 270 269 267 265 267 268 271 264 257 254
175 202 239 254 227 187 141 270 245 220 240 247 179 271 270 275 301 301 296 289 288 292 293 293 293 297 299 302 299 290 287 285 285 278 271 269 267 269 273 269 269 269 266 256
205 229 258 255 193 134 174 252 271 224 229 213 214 236 264 297 304 301 302 302 300 296 298 291 292 300 294 299 289 289 292 293 293 288 282 276 277 271 271 277 280 271 266 266
178 214 253 200 143 184 228 269 252 238 230 225 246 266 278 288 294 305 313 314 313 315 315 311 304 299 297 295 298 306 307 306 300 296 291 292 285 284 277 264 267 265 268 276
196 217 256 183 205 237 246 252 257 247 249 237 259 270 280 287 291 298 305 312 318 314 315 316 312 302 294 300 310 316 315 309 306 304 300 295 285 282 285 273 262 265 259 267
242 261 262 257 263 278 258 246 261 261 259 250 261 268 276 284 294 302 305 310 316 319 313 313 316 311 293 301 312 311 305 303 305 302 304 308 301 286 274 269 263 264 264 267
248 270 294 277 257 260 270 270 276 289 269 250 242 268 273 281 287 290 296 306 308 301 299 304 315 318 312 311 318 309 303 302 307 303 298 303 305 293 279 266 255 254 259 260
235 236 221 254 263 257 258 269 267 277 295 290 258 260 276 281 281 279 286 299 306 303 302 306 313 314 316 316 310 304 302 303 301 302 301 303 308 317 311 296 300 295 288 284
236 249 239 260 281 274 260 274 279 273 267 284 291 276 278 286 290 288 290 292 290 292 295 302 306 307 311 314 314 296 288 292 293 291 290 299 305 306 315 325 324 321 314 305
242 235 256 257 263 273 268 284 310 321 305 294 295 304 300 296 300 301 297 293 293 298 300 303 306 306 312 316 312 299 293 288 291 286 286 292 291 290 292 301 313 318 322 318
253 229 227 252 285 298 297 347 3 325 322 325 323 319 314 305 300 300 304 311 315 310 309 312 311 311 320 322 312 298 294 299 299 296 294 293 297 294 291 292 294 304 318 325
261 269 226 225 249 267 276 259 263 287 297 301 305 304 299 292 294 302 308 313 310 304 303 305 304 309 318 320 317 308 299 299 314 307 306 306 308 303 294 288 290 297 303 309
197 238 246 262 263 265 256 247 247 264 277 280 285 294 301 308 310 309 309 306 294 288 292 296 299 310 317 316 314 310 311 310 315 320 313 305 302 301 302 295 289 289 293 297
232 238 235 233 240 255 271 272 265 270 270 273 284 287 285 283 284 293 303 313 316 308 298 296 298 310 312 312 312 308 302 304 308 303 306 304 310 307 304 302 292 287 295 302
249 242 247 248 242 237 249 261 269 273 278 278 277 280 280 280 282 290 301 306 304 303 306 308 312 317 311 307 315 301 303 306 311 311 307 306 314 313 309 303 302 295 293 298
297 277 267 281 281 249 250 260 266 274 274 266 276 289 295 294 291 294 295 283 274 276 291 302 309 305 303 301 307 301 293 291 294 300 300 301 299 300 303 304 303 303 304 297
277 277 279 286 291 283 262 251 251 266 277 265 260 271 282 293 294 290 287 291 295 296 298 304 308 300 298 301 299 298 289 287 283 279 282 286 289 291 294 299 302 304 306 306
253 243 258 266 269 284 287 269 255 264 275 277 279 279 284 292 297 290 269 263 287 303 309 297 296 296 303 304 289 284 285 287 284 278 277 278 280 285 290 295 295 298 301 304
255 244 249 254 253 271 291 279 261 257 260 264 264 267 271 276 277 278 289 288 290 299 305 291 297 302 308 310 290 279 276 275 275 273 274 274 273 274 277 282 285 290 293 297
255 257 259 260 236 256 281 286 284 273 267 271 268 265 264 278 285 269 270 294 304 304 300 298 307 310 317 312 285 278 274 275 277 276 275 274 273 272 272 275 280 285 286 292
245 244 237 220 238 253 261 282 299 293 292 290 288 282 270 256 262 281 288 292 303 311 310 309 314 316 320 299 285 279 278 277 281 281 278 284 282 281 280 280 282 286 290 293
243 242 246 244 245 249 250 253 269 280 286 296 301 299 297 290 279 284 293 300 306 319 323 319 317 315 309 296 289 284 283 291 294 290 285 286 287 288 289 291 291 289 291 293
282 276 272 283 272 248 244 247 252 265 266 270 288 297 302 307 311 318 321 323 325 327 326 325 325 320 314 306 299 295 294 294 293 295 297 294 290 288 289 290 291 292 293 294
Height
1490 1489 1491 1490 1490 1492 1493 1492 1492 1483 1482 1473 1472 1472 1471 1471 1470 1470 1469 1468 1468 1467 1467 1466 1465 1464 1463 1462 1462 1461 1460 1460 1459 1459 1459 1460 1459 1459 1459 1459 1459 1459 1458 1458
1492 1489 1489 1487 1485 1485 1486 1486 1484 1480 1476 1469 1469 1469 1469 1468 1468 1467 1466 1466 1465 1465 1464 1463 1462 1461 1460 1459 1458 1458 1457 1456 1456 1456 1456 1455 1455 1455 1455 1454 1454 1454 1453 1453
1490 1490 1487 1485 1478 1479 1480 1478 1477 1475 1469 1466 1467 1467 1466 1465 1465 1464 1464 1464 1463 1462 1461 1460 1459 1458 1456 1455 1455 1454 1453 1453 1453 1452 1452 1452 1451 1451 1450 1450 1449 1449 1448 1448
1493 1492 1488 1471 1469 1470 1472 1470 1470 1467 1465 1464 1464 1463 1463 1463 1462 1461 1461 1461 1460 1459 1458 1457 1456 1455 1454 1452 1451 1451 1450 1449 1449 1449 1448 1448 1447 1447 1446 1445 1445 1444 1444 1444
1491 1489 1480 1471 1467 1469 1470 1467 1464 1464 1462 1462 1462 1461 1460 1460 1460 1459 1459 1458 1457 1456 1454 1453 1452 1451 1450 1449 1448 1447 1446 1446 1446 1445 1445 1444 1443 1443 1442 1441 1440 1440 1439 1439
1488 1485 1479 1465 1464 1463 1467 1466 1459 1458 1459 1459 1461 1463 1458 1457 1457 1456 1455 1454 1453 1452 1451 1450 1448 1448 1446 1445 1445 1444 1443 1443 1442 1442 1441 1440 1439 1439 1438 1437 1436 1435 1435 1435
1485 1482 1473 1464 1462 1463 1469 1462 1456 1456 1456 1457 1458 1457 1455 1454 1454 1453 1452 1451 1450 1449 1448 1447 1445 1444 1443 1442 1442 1441 1440 1439 1439 1438 1438 1437 1436 1435 1434 1433 1432 1432 1432 1432
1482 1480 1469 1461 1461 1462 1459 1455 1454 1453 1453 1453 1453 1453 1452 1452 1451 1450 1449 1448 1447 1445 1444 1444 1443 1442 1440 1440 1439 1438 1437 1436 1436 1435 1434 1433 1432 1431 1430 1430 1429 1428 1428 1429
1468 1465 1458 1456 1456 1455 1455 1454 1452 1452 1451 1451 1450 1450 1449 1448 1448 1447 1446 1445 1444 1442 1441 1441 1440 1439 1438 1437 1436 1435 1434 1433 1432 1432 1431 1430 1429 1428 1427 1426 1425 1425 1425 1425
1465 1458 1455 1454 1453 1453 1453 1451 1450 1450 1449 1449 1448 1447 1446 1446 1445 1444 1443 1442 1441 1440 1438 1438 1437 1436 1435 1434 1433 1432 1431 1430 1429 1428 1427 1427 1426 1425 1424 1423 1423 1422 1422 1421
1460 1455 1453 1450 1450 1450 1449 1449 1448 1448 1447 1446 1445 1444 1444 1443 1442 1441 1440 1440 1439 1437 1436 1435 1434 1433 1433 1431 1430 1429 1428 1427 1426 1425 1424 1424 1423 1423 1422 1421 1421 1420 1419 1419
1452 1449 1450 1448 1447 1447 1447 1446 1446 1445 1444 1444 1443 1442 1441 1440 1440 1439 1438 1437 1436 1435 1434 1433 1432 1431 1430 1429 1428 1426 1425 1424 1424 1423 1422 1421 1421 1420 1419 1419 1418 1418 1417 1417
1445 1445 1445 1445 1445 1445 1444 1444 1443 1443 1442 1441 1441 1440 1439 1438 1437 1437 1436 1435 1434 1433 1432 1431 1430 1428 1427 1426 1425 1424 1423 1422 1421 1420 1420 1419 1418 1417 1416 1416 1416 1416 1415 1415
1442 1443 1442 1442 1442 1442 1442 1441 1441 1440 1440 1439 1438 1437 1436 1436 1435 1434 1433 1433 1432 1430 1429 1428 1427 1426 1425 1424 1423 1422 1421 1420 1419 1418 1418 1417 1416 1416 1415 1414 1413 1413 1413 1412
1439 1440 1440 1439 1439 1439 1439 1438 1438 1437 1437 1436 1435 1435 1434 1433 1432 1432 1431 1430 1429 1428 1427 1426 1425 1424 1423 1422 1420 1419 1419 1418 1417 1416 1416 1415 1415 1414 1414 1413 1412 1411 1410 1410
1436 1437 1436 1436 1436 1436 1436 1435 1435 1434 1434 1433 1433 1432 1432 1431 1430 1430 1429 1428 1427 1426 1425 1424 1422 1422 1420 1419 1418 1417 1416 1416 1415 1414 1414 1414 1413 1412 1412 1411 1410 1409 1408 1408
1434 1433 1433 1433 1433 1433 1433 1433 1432 1432 1432 1431 1431 1430 1429 1428 1428 1427 1426 1426 1425 1424 1423 1422 1420 1419 1418 1417 1416 1415 1414 1414 1413 1413 1412 1412 1411 1411 1410 1409 1408 1407 1407 1406
1432 1431 1431 1431 1430 1430 1430 1430 1430 1430 1430 1429 1428 1428 1427 1426 1425 1425 1424 1423 1423 1422 1421 1420 1419 1417 1416 1415 1414 1414 1413 1412 1411 1411 1410 1410 1409 1409 1408 1407 1406 1405 1404 1404
1429 1429 1429 1428 1428 1428 1428 1428 1428 1428 1427 1427 1426 1425 1425 1424 1424 1423 1422 1421 1420 1419 1418 1417 1416 1415 1415 1414 1413 1412 1411 1410 1410 1409 1409 1408 1407 1407 1406 1405 1404 1403 1403 1402
1427 1427 1427 1426 1427 1426 1426 1426 1426 1425 1425 1425 1424 1424 1423 1422 1422 1421 1420 1419 1418 1417 1416 1415 1414 1413 1412 1411 1411 1410 1409 1408 1408 1407 1407 1406 1405 1404 1404 1403 1402 1402 1401 1400
1425 1425 1425 1425 1425 1425 1425 1424 1424 1423 1423 1423 1422 1422 1421 1420 1420 1419 1418 1417 1416 1415 1414 1413 1412 1411 1410 1409 1408 1407 1407 1406 1405 1405 1404 1404 1403 1403 1402 1401 1400 1400 1399 1398
1424 1424 1424 1424 1423 1423 1423 1423 1422 1422 1421 1420 1420 1419 1419 1418 1417 1417 1416 1415 1414 1413 1412 1411 1410 1409 1408 1407 1406 1405 1404 1404 1403 1403 1402 1402 1401 1401 1400 1399 1399 1398 1397 1397
1423 1423 1422 1422 1422 1422 1421 1421 1421 1420 1419 1418 1418 1417 1416 1416 1415 1414 1413 1413 1412 1411 1410 1409 1408 1407 1406 1405 1404 1403 1402 1401 1401 1400 1400 1400 1399 1399 1398 1398 1397 1396 1395 1395
1421 1421 1421 1421 1421 1420 1420 1419 1419 1418 1417 1417 1416 1415 1415 1414 1413 1412 1412 1411 1410 1409 1408 1406 1405 1404 1403 1402 1401 1400 1400 1399 1398 1398 1398 1397 1397 1397 1397 1396 1395 1395 1394 1393
1420 1420 1420 1419 1419 1418 1418 1417 1417 1416 1415 1415 1414 1413 1413 1412 1411 1410 1410 1409 1408 1407 1405 1404 1403 1402 1401 1400 1399 1398 1398 1397 1397 1396 1396 1395 1395 1395 1394 1394 1393 1393 1392 1392
1418 1418 1418 1418 1418 1417 1417 1416 1415 1414 1413 1413 1412 1411 1411 1410 1409 1408 1407 1407 1406 1405 1403 1402 1401 1400 1399 1398 1397 1396 1396 1395 1395 1394 1394 1394 1393 1393 1392 1392 1392 1391 1391 1390
1417 1417 1416 1416 1416 1415 1415 1414 1414 1413 1412 1411 1410 1410 1409 1408 1407 1406 1406 1405 1404 1403 1402 1401 1399 1398 1397 1396 1395 1395 1394 1393 1393 1393 1392 1392 1392 1391 1391 1390 1390 1389 1389 1388